Location: ČR
(50.0000°N, 15.0000°E)
Time: 16:15:53
(UTC+01:00)

Courier 1B - Pass Details

Date: 10 February 2026
Orbit: 962 x 1208 km, 28.3° (Epoch: 16 March)

Event Time Altitude Azimuth Distance (km) Brightness Sun altitude
Rises 00:13:16 0° 225° (SW) 4,103 - -54.4°
Reaches altitude 10° 00:18:03 10° 200° (SSW) 3,127 - -54.4°
Maximum altitude 00:21:17 13° 175° (S) 2,883 - -54.4°
Drops below altitude 10° 00:24:29 10° 150° (SSE) 3,089 - -54.4°
Sets 00:29:09 0° 125° (SE) 4,006 - -54.3°
